Location: Stoke Bliss
(52.2667°N, 2.5167°W)
Time: 21:33:31
(UTC+00:00)

Cosmos 1844 Rocket - Pass Details

Date: 03 March 2021
Orbit: 826 x 843 km, 71.0° (Epoch: 15 April)

Event Time Altitude Azimuth Distance (km) Brightness Sun altitude
Rises 20:03:23 0° 325° (NW) 3,377 6.7 -20.5°
Reaches altitude 10° 20:05:59 10° 317° (NW) 2,439 5.9 -20.9°
Maximum altitude 20:11:02 37° 252° (WSW) 1,274 4.0 -21.6°
Drops below altitude 10° 20:16:04 10° 187° (S) 2,425 5.0 -22.3°
Enters shadow 20:17:27 - 182° (S) 2,917 5.3 -22.5°
